THOR AGENA D R/B, 733

Orbit data source: Space-Track

THOR AGENA D R/B, 733 is space debris in SSO originally from a launch on Sun, 19 Jan 1964 UTC launched from the Air Force Western Test Range (AFWTR). Debris objects in space refer to the collection of defunct objects orbiting the Earth. Examples of debris include non-operational satellites, rocket bodies, and fragments generated from explosions, collisions, or faulty payload assembly.

Loading next visibility...
Identifier
733, 1964-002A
Orbit
SSO
Country
Flag of USUS
Related business
Manufacturer
LMSC
Mission
Spacecraft
Bus & Motor
AGENA D, Unknown motor
Mass
600 kg wet, 600 kg dry
Launch date (UTC)
1964-01-19 (62 years ago)
Launch vehicle
Unknown
Launch site
Air Force Western Test Range (AFWTR)
Object type
Payload
Rocket body
Debris
Shape & HBR
Unknown
Radar Cross Section
Large (>1 m²)

Expand to show TLE details & history
Last TLE update: 14 hours ago

TLE from 14 hours ago
0 THOR AGENA D R/B
1 00733U 64002A   25347.00149036  .00000402  00000-0  16062-3 0  9993
2 00733  99.1218 350.6343 0033369 149.4627 210.8507 14.33959985225879
Epoch: 2025-12-13T00:02Z
TLE epoch observation values (Epoch: 2025-12-13T00:02:08.767Z)
Latitude
-0.00007°
Longitude
-91.83725°
Altitude
801.972 km
Speed
7.442 km/s
True Right ascension
23h 22m 32s
True Declination
0° 00' 00"
Sunlit
Object was in daylight at epoch
Visualization orbit readout
Latitude
Unknown
Longitude
Unknown
Altitude
Unknown
Speed
Unknown
Apparent Right ascension
Unknown
Apparent Declination
Unknown
Sunlit
N/A
Visualization observer readout
Local Sidereal Time
12:09:26
Azimuth
Unknown
Elevation
Unknown
Doppler factor
Unknown
Orbital elements
Apogee altitude
799.556 km
Perigee altitude
751.813 km
Semi-major axis
7,153.822 km
Eccentricity
0.00334
Inclination
99.1218°
RAAN
350.6343°
Arg. of periapsis
149.4627°
True anomaly
210.65531°
Mean anomaly
210.8507°
Eccentric anomaly
210.75294°
Mean motion
3.58704 °/min
Orbital period
100.36 mins
BSTAR
0.00016062
Loading maneuver chart data...
Computing Atmospheric mass density...
Loading historical data...
Loading historical data...
Loading historical data...
Loading historical data...
Loading historical data...
Loading historical data...
Loading historical data...
Other satellites on launch #2 in the year 1964 (1964-01-19 UTC)

Documentation

Showing up to 5 results
|